[[{"header":{"parameterUnit":"m.s-1","parameterCategory":1,"la1":30.2991,"la2":30.254,"lo1":-89.0895,"lo2":-89.0444,"dx":0.0017,"dy":0.0017,"nx":28,"ny":28,"refTime":"2022-11-05T15:00:00:Z","depth":0,"parameterNumber":2,"parameterNumberName":"U-component_of_WINDS"},"data":[0,0,0,0,0,0,0,0,0,0,0,0,0,0,0,0,0,0,0,0,0,0,0,0,0,0,0,0,0,0,0,0,0,0,0,0,0,0,0,0,0,0,0,0,0,0,0,0,0,0,0,0,0,0,0,0,0,0,-1.9951,-1.9953,0,-2.0073,-2.0074,-2.0076,-2.0078,-2.0076,-2.0075,-2.0073,-2.0199,-2.0204,-2.0208,0,0,0,0,0,0,0,0,0,0,0,0,0,-1.9722,-1.9727,-1.9951,-1.9953,-1.9954,-2.0073,-2.0074,-2.0076,-2.0078,-2.0076,-2.0074,-2.0073,-2.0197,-2.0203,-2.0209,0,0,0,0,0,0,0,0,0,0,0,0,0,-1.9831,-1.9728,-1.9951,-1.997,-1.9972,-2.0072,-2.0074,-2.0076,-2.0079,-2.0076,-2.0074,-2.0072,-2.0196,-2.0202,-2.021,-2.0299,0,0,-2.0231,-2.0234,0,0,0,0,0,0,0,0,-1.9825,-1.9839,-1.9965,-1.9969,-1.9972,-2.0058,-2.004,-2.0151,-2.0079,-2.0038,-2.0073,-2.0071,-2.0154,-2.0164,-2.0192,-2.0305,-2.031,-2.0232,-2.0236,-2.0239,-2.0241,0,0,0,0,0,0,0,-1.9817,-1.9834,-1.9999,-1.9967,-1.9971,-1.9972,-1.9985,-2.0061,-2.0107,-2.0042,-2.0042,-2.0056,-2.0155,-2.0185,-2.0195,-2.0312,-2.0232,-2.0238,-2.0243,-2.0245,-2.0506,-2.0508,0,0,0,0,0,0,-1.9806,-1.9828,-1.9996,-2.0003,-1.9891,-1.9978,-1.9993,-2.0033,-2.0107,-2.0116,-2.0058,-2.0056,-2.0174,-2.0187,-2.02,-2.031,-2.0239,-2.0246,-2.025,-2.0503,-2.0506,-2.0509,0,0,0,0,0,0,-1.9801,-1.9821,-1.9991,-1.9916,-1.9937,-1.9985,-2.0029,-2.0036,-2.0066,-2.0119,-2.0128,-2.008,-2.0173,-2.019,-2.0275,-2.0314,-2.0249,-2.0256,-2.05,-2.0504,-2.0508,-2.0531,0,0,0,0,0,0,-1.9794,-1.9819,-1.9853,-1.9916,-1.9941,-2.0063,-2.0032,-2.004,-2.0078,-2.0077,-2.0142,-2.0151,-2.0172,-2.0264,-2.0282,-2.0323,-2.0261,-2.0497,-2.0502,-2.0507,-2.0527,-2.0535,-2.0542,0,0,0,0,0,-1.9786,-1.9855,-1.9855,-1.9875,-1.9985,-2.0065,-2.008,-2.0103,-2.0082,-2.0117,-2.0151,-2.0149,-2.0307,-2.0273,-2.0293,-2.0337,-2.0494,-2.05,-2.0506,-2.0523,-2.0534,-2.0542,0,0,0,0,0,0,-1.9795,-1.9863,-1.9864,-1.9955,-2.0004,-2.0066,-2.011,-2.0113,-2.017,-2.0166,-2.0193,-2.0207,-2.0292,-2.0323,-2.0283,-2.0428,-2.0398,-2.0408,-2.0404,-2.0415,-2.0422,-2.0413,-2.0267,0,0,0,0,0,-1.9807,-1.9867,-1.9923,-1.9999,-2.0023,-2.0063,-2.0099,-2.0112,-2.0165,-2.0185,-2.0226,-2.0277,-2.0338,-2.0378,-2.0437,-2.0531,-2.0546,-2.0572,-2.0579,-2.0585,-2.0594,-2.0646,-2.0659,-2.0529,-2.0529,-2.0529,0,0,-1.9834,-1.9879,-1.9915,-2.0001,-2.0041,-2.0103,-2.008,-2.0146,-2.0192,-2.0196,-2.0278,-2.031,-2.0369,-2.0459,-2.05,-2.0487,-2.0633,-2.0593,-2.0597,-2.0603,-2.0654,-2.0666,-2.0677,-2.0533,-2.0532,-2.0531,0,0,-1.9914,-1.9954,-2.0021,-2.0061,-2.0122,-2.0147,-2.0164,-2.0225,-2.0246,-2.0329,-2.0334,-2.0389,-2.0494,-2.0536,-2.0571,-2.0667,-2.0668,-2.0686,-2.0726,-2.0777,-2.0788,-2.0797,-2.0831,-2.0844,-2.0694,-2.0694,-2.0694,0,-1.9939,-2.0031,-2.0055,-2.0121,-2.0159,-2.0165,-2.0234,-2.0272,-2.0349,-2.0376,-2.036,-2.0492,-2.0532,-2.0632,-2.0656,-2.0684,-2.0703,-2.0679,-2.0784,-2.0794,-2.0803,-2.0836,-2.0849,-2.0696,-2.0696,-2.0696,-2.0696,0,-2.006,-2.0124,-2.0171,-2.0245,-2.0289,-2.0356,-2.039,-2.0431,-2.0441,-2.0469,-2.0554,-2.0603,-2.0672,-2.0697,-2.0708,-2.0799,-2.0789,-2.0778,-2.0749,-2.0816,-2.0848,-2.0861,-2.0699,-2.0698,-2.0698,-2.0697,0,0,-2.0148,-2.0235,-2.0252,-2.0286,-2.0353,-2.0403,-2.0471,-2.0539,-2.0574,-2.0627,-2.0685,-2.0774,-2.0765,-2.0804,-2.082,-2.0865,-2.0938,-2.0849,-2.085,-2.0864,-2.1043,-2.105,-2.1064,-2.0939,-2.0942,-2.0944,-2.1038,0,-2.0236,-2.0355,-2.0379,-2.0483,-2.0542,-2.055,-2.0609,-2.0657,-2.0685,-2.074,-2.0771,-2.0834,-2.0817,-2.0841,-2.0885,-2.092,-2.0975,-2.0913,-2.0993,-2.0996,-2.0978,-2.1081,-2.1089,-2.1175,-2.105,-2.1052,-2.1054,0,-2.0353,-2.0409,-2.0519,-2.0579,-2.0605,-2.0658,-2.0722,-2.0774,-2.083,-2.0847,-2.0892,-2.0902,-2.0973,-2.0941,-2.104,-2.0997,-2.1032,-2.1054,-2.1058,-2.1066,-2.1029,-2.1092,-2.1203,-2.1216,-2.1074,-2.1072,-2.1071,0,-2.0407,-2.051,-2.0589,-2.0618,-2.069,-2.0727,-2.0758,-2.0811,-2.0851,-2.0907,-2.0933,-2.0997,-2.1032,-2.1082,-2.111,-2.1084,-2.1207,-2.1177,-2.1223,-2.1223,-2.1249,-2.1246,-2.1367,-2.1271,-2.1271,-2.127,-2.127,0,-2.0502,-2.0569,-2.0614,-2.0663,-2.0738,-2.0765,-2.0839,-2.0871,-2.0918,-2.0973,-2.0984,-2.1035,-2.1069,-2.1126,-2.1149,-2.1227,-2.1243,-2.1259,-2.1264,-2.1258,-2.1256,-2.1281,-2.1275,-2.1274,-2.1273,-2.1272,-2.1272,0,-2.0574,-2.0607,-2.0694,-2.0755,-2.0772,-2.0825,-2.0878,-2.0926,-2.0954,-2.1024,-2.1042,-2.1087,-2.1154,-2.1187,-2.1271,-2.1286,-2.1375,-2.1376,-2.1356,-2.1358,-2.1403,-2.1398,-2.1543,-2.1564,-2.1454,-2.1455,-2.1456,0,-2.0632,-2.0684,-2.0751,-2.0789,-2.0821,-2.0882,-2.0922,-2.0951,-2.0993,-2.106,-2.11,-2.1168,-2.1223,-2.1331,-2.1371,-2.1436,-2.1439,-2.1485,-2.1448,-2.1441,-2.1439,-2.1436,-2.1441,-2.1491,-2.1492,-2.1493,-2.1494,0,-2.0732,-2.0746,-2.0804,-2.0867,-2.0915,-2.0967,-2.1018,-2.1048,-2.1085,-2.1131,-2.12,-2.1244,-2.133,-2.1397,-2.1464,-2.1498,-2.1502,-2.1505,-2.152,-2.1514,-2.15,-2.1508,-2.1374,-2.1502,-2.1501,-2.15,-2.15,-2.15,-2.0799,-2.0846,-2.09,-2.0964,-2.1006,-2.1053,-2.1101,-2.1136,-2.1194,-2.1265,-2.1279,-2.1352,-2.1407,-2.1498,-2.1533,-2.1592,-2.1581,-2.1602,-2.1607,-2.1612,-2.1614,-2.1491,-2.1604,-2.1604,-2.1604,-2.1604,-2.1603,0,-2.09,-2.0935,-2.0994,-2.1065,-2.1115,-2.1115,-2.1172,-2.1214,-2.1278,-2.1329,-2.1384,-2.1463,-2.1529,-2.1574,-2.1641,-2.1679,-2.1683,-2.1696,-2.1693,-2.1701,-2.1619,-2.16,-2.1691,-2.1691,-2.1691,-2.1691,-2.1691,-2.1691,-2.0958,-2.1037,-2.1057,-2.1157,-2.1192,-2.1264,-2.1296,-2.134,-2.1381,-2.1469,-2.1524,-2.1553,-2.1601,-2.1672,-2.1732,-2.1744,-2.1768,-2.1781,-2.1793,-2.1716,-2.1706,-2.1698,-2.168,-2.1786,-2.1786,-2.1869,-2.187,-2.1871]},{"header":{"parameterUnit":"m.s-1","parameterCategory":1,"la1":30.2991,"la2":30.254,"lo1":-89.0895,"lo2":-89.0444,"dx":0.0017,"dy":0.0017,"nx":28,"ny":28,"refTime":"2022-11-05T15:00:00:Z","depth":0,"parameterNumber":3,"parameterNumberName":"V-component_of_WINDS"},"data":[0,0,0,0,0,0,0,0,0,0,0,0,0,0,0,0,0,0,0,0,0,0,0,0,0,0,0,0,0,0,0,0,0,0,0,0,0,0,0,0,0,0,0,0,0,0,0,0,0,0,0,0,0,0,0,0,0,0,0.0534,0.0535,0,0.0604,0.0605,0.0605,0.0657,0.0658,0.0658,0.0659,0.0731,0.0733,0.0734,0,0,0,0,0,0,0,0,0,0,0,0,0,0.0448,0.0449,0.0534,0.0535,0.0536,0.0604,0.0605,0.0606,0.0657,0.0658,0.0658,0.0659,0.0731,0.0733,0.0734,0,0,0,0,0,0,0,0,0,0,0,0,0,0.0498,0.0449,0.0534,0.057,0.0574,0.0603,0.0605,0.0606,0.0657,0.0658,0.0659,0.0659,0.073,0.0732,0.0735,0.0735,0,0,0.0742,0.0743,0,0,0,0,0,0,0,0,0.0495,0.0501,0.0563,0.0567,0.0572,0.0623,0.0601,0.0649,0.0657,0.0625,0.0659,0.066,0.0695,0.07,0.0712,0.0738,0.0741,0.0742,0.0743,0.0744,0.0745,0,0,0,0,0,0,0,0.0492,0.0499,0.0562,0.0564,0.0569,0.0583,0.0591,0.061,0.0655,0.0628,0.0632,0.064,0.0697,0.0709,0.0714,0.0742,0.0742,0.0744,0.0745,0.0746,0.0775,0.0774,0,0,0,0,0,0,0.0482,0.0495,0.0559,0.0564,0.0534,0.0584,0.0593,0.0606,0.0655,0.0664,0.0639,0.0642,0.0705,0.0711,0.0716,0.0721,0.0744,0.0746,0.0747,0.0775,0.0775,0.0774,0,0,0,0,0,0,0.048,0.0487,0.0557,0.0531,0.054,0.0585,0.0599,0.0607,0.0619,0.0663,0.0672,0.0643,0.0706,0.0713,0.073,0.0724,0.0747,0.0749,0.0776,0.0775,0.0774,0.0729,0,0,0,0,0,0,0.0477,0.0486,0.0486,0.053,0.0542,0.0568,0.0598,0.0607,0.0622,0.0627,0.0669,0.0677,0.0707,0.0727,0.0732,0.0728,0.0751,0.0777,0.0776,0.0775,0.0731,0.0727,0.0723,0,0,0,0,0,0.0474,0.047,0.0486,0.0493,0.0542,0.0568,0.0574,0.0608,0.0622,0.0622,0.0651,0.0676,0.0724,0.0728,0.0735,0.0731,0.0777,0.0776,0.0775,0.0733,0.0728,0.0723,0,0,0,0,0,0,0.0424,0.0477,0.0494,0.0505,0.0531,0.0576,0.0578,0.0601,0.0625,0.0628,0.067,0.0679,0.0692,0.0713,0.0717,0.0734,0.0754,0.0754,0.072,0.0715,0.0711,0.0705,0.0753,0,0,0,0,0,0.0415,0.043,0.0476,0.048,0.0493,0.0533,0.0546,0.057,0.0599,0.0611,0.0641,0.0669,0.0691,0.0704,0.0726,0.0735,0.0746,0.0736,0.0731,0.0728,0.0727,0.0735,0.0731,0.077,0.077,0.077,0,0,0.0395,0.0425,0.0433,0.0471,0.0495,0.0511,0.0542,0.0558,0.0571,0.0613,0.0631,0.0655,0.0689,0.0702,0.0709,0.072,0.0719,0.0726,0.0723,0.0724,0.0733,0.0729,0.0726,0.0769,0.0769,0.0769,0,0,0.0366,0.0391,0.0398,0.0421,0.0456,0.0484,0.0485,0.0527,0.0545,0.0563,0.0596,0.0613,0.0648,0.0672,0.0689,0.0672,0.0695,0.0678,0.0655,0.0662,0.0659,0.0657,0.0652,0.0649,0.0677,0.0677,0.0677,0,0.0337,0.0362,0.0399,0.0413,0.0429,0.0469,0.0477,0.0498,0.0539,0.055,0.0562,0.0609,0.0635,0.0655,0.0651,0.0663,0.0667,0.0673,0.0657,0.0655,0.0653,0.0648,0.0646,0.0675,0.0675,0.0675,0.0675,0,0.0325,0.0342,0.0344,0.0382,0.0399,0.041,0.045,0.0463,0.0486,0.0512,0.0531,0.0564,0.0594,0.0601,0.0623,0.0625,0.063,0.0649,0.0669,0.0646,0.0643,0.0641,0.0671,0.0672,0.0673,0.0673,0,0,0.0266,0.0326,0.0326,0.0344,0.0387,0.0402,0.0415,0.0445,0.0456,0.0483,0.0496,0.0527,0.0545,0.0564,0.059,0.0596,0.0581,0.0614,0.0615,0.0607,0.0586,0.0572,0.0569,0.0598,0.0597,0.0597,0.0583,0,0.0245,0.027,0.0305,0.0319,0.0337,0.0375,0.0388,0.0416,0.0441,0.046,0.0489,0.051,0.0531,0.0543,0.0551,0.0581,0.0578,0.0583,0.0611,0.0612,0.0601,0.0567,0.0552,0.0537,0.0582,0.0582,0.0582,0,0.0223,0.0248,0.0265,0.0308,0.0316,0.0326,0.0357,0.0374,0.0408,0.0426,0.0448,0.0476,0.0494,0.0512,0.0538,0.0541,0.0555,0.0571,0.0572,0.0576,0.0595,0.057,0.0533,0.0531,0.058,0.058,0.058,0,0.0179,0.0218,0.0233,0.0248,0.0298,0.0304,0.0326,0.036,0.0376,0.0403,0.0414,0.0443,0.0459,0.0481,0.0517,0.0527,0.054,0.056,0.0556,0.0555,0.0556,0.0556,0.0521,0.0565,0.0565,0.0565,0.0565,0,0.0151,0.016,0.0214,0.0223,0.0235,0.0275,0.0285,0.031,0.0341,0.0356,0.0392,0.0406,0.0452,0.0473,0.0501,0.0518,0.0525,0.0541,0.0549,0.0538,0.0536,0.0547,0.0549,0.0564,0.0564,0.0565,0.0565,0,0.0104,0.014,0.016,0.0206,0.0218,0.0224,0.0265,0.0276,0.0304,0.0323,0.033,0.0375,0.04,0.0438,0.0475,0.0494,0.0508,0.052,0.0496,0.0501,0.0494,0.0494,0.0465,0.0464,0.0508,0.0508,0.0507,0,0.0084,0.0092,0.0139,0.0152,0.0172,0.0193,0.021,0.025,0.0266,0.0306,0.0313,0.0341,0.0366,0.0405,0.0441,0.047,0.0483,0.0471,0.0488,0.0478,0.0484,0.0483,0.0485,0.0467,0.0466,0.0466,0.0465,0,0.0045,0.0063,0.0086,0.0115,0.0134,0.016,0.0187,0.0195,0.0242,0.0259,0.0285,0.0305,0.0343,0.0371,0.0405,0.0429,0.0455,0.046,0.0461,0.045,0.0436,0.0444,0.0486,0.046,0.0461,0.0461,0.0462,0.0462,0.0011,0.002,0.0056,0.008,0.0105,0.013,0.0143,0.0173,0.0196,0.023,0.0253,0.0278,0.0314,0.0362,0.0384,0.0406,0.0417,0.0417,0.0418,0.0417,0.0414,0.0433,0.0412,0.0412,0.0413,0.0413,0.0413,0,-0.0025,-0.0,0.0022,0.0059,0.0078,0.0102,0.0133,0.0149,0.017,0.0201,0.0225,0.0256,0.0284,0.0323,0.0354,0.0364,0.0377,0.0371,0.0371,0.0376,0.0402,0.0398,0.036,0.036,0.036,0.036,0.036,0.036,-0.0042,-0.0025,-0.0003,0.0028,0.0053,0.0078,0.0094,0.0118,0.0143,0.0176,0.0199,0.0224,0.0259,0.0293,0.032,0.0331,0.0341,0.0331,0.0346,0.0369,0.0374,0.0378,0.0375,0.0333,0.0333,0.0318,0.0318,0.0318]}]]